• In Uzbekistan
  • List of Countries
  • For 7 days
  • Water Temperature
  • Satellite Maps
  • Weather Map
  • Weather Widgets
  • user-avatar
    Login

    Hourly Weather Manika

    Today, 15 October, Monday

    Time Temperature Precipitation Wind Pressure Humidity
    00:00 +21°C° 0 mm 2 mps 679 mmHg 60%
    01:00 +21°C° 0 mm 1 mps 679 mmHg 65%
    02:00 +20°C° 0 mm 1 mps 678 mmHg 70%
    03:00 +20°C° 0 mm 1 mps 678 mmHg 73%
    04:00 +20°C° 0 mm 1 mps 678 mmHg 75%
    05:00 +20°C° 0 mm 1 mps 678 mmHg 78%
    06:00 +22°C° 0 mm 1 mps 679 mmHg 66%
    07:00 +25°C° 0 mm 2 mps 680 mmHg 55%
    08:00 +28°C° 0 mm 2 mps 681 mmHg 45%
    09:00 +31°C° 0 mm 2 mps 681 mmHg 37%
    10:00 +35°C° 0 mm 2 mps 681 mmHg 30%
    11:00 +37°C° 0 mm 1 mps 681 mmHg 22%
    12:00 +37°C° 0 mm 2 mps 680 mmHg 24%
    13:00 +35°C° 0 mm 2 mps 679 mmHg 27%
    14:00 +33°C° 0 mm 3 mps 679 mmHg 34%
    15:00 +31°C° 0.1 mm 3 mps 679 mmHg 35%
    16:00 +31°C° 0.1 mm 2 mps 679 mmHg 37%
    17:00 +30°C° 0.1 mm 1 mps 679 mmHg 39%
    18:00 +29°C° 0 mm 1 mps 679 mmHg 44%
    19:00 +27°C° 0 mm 1 mps 679 mmHg 49%
    20:00 +26°C° 0 mm 1 mps 679 mmHg 54%
    21:00 +26°C° 0 mm 1 mps 679 mmHg 56%
    22:00 +25°C° 0 mm 1 mps 680 mmHg 58%
    23:00 +25°C° 0 mm 1 mps 680 mmHg 59%

    Tomorrow, 16 October, Tuesday

    Time Temperature Precipitation Wind Pressure Humidity
    00:00 +24°C° 0 mm 1 mps 679 mmHg 62%
    01:00 +23°C° 0 mm 1 mps 679 mmHg 65%
    02:00 +23°C° 0 mm 1 mps 679 mmHg 68%
    03:00 +22°C° 0 mm 1 mps 679 mmHg 69%
    04:00 +22°C° 0 mm 1 mps 678 mmHg 70%
    05:00 +21°C° 0 mm 1 mps 678 mmHg 71%
    06:00 +24°C° 0 mm 1 mps 679 mmHg 61%
    07:00 +27°C° 0 mm 1 mps 680 mmHg 52%
    08:00 +30°C° 0 mm 1 mps 681 mmHg 42%
    09:00 +31°C° 0 mm 1 mps 681 mmHg 36%
    10:00 +34°C° 0 mm 2 mps 681 mmHg 30%
    11:00 +36°C° 0 mm 3 mps 681 mmHg 24%
    12:00 +35°C° 0 mm 3 mps 681 mmHg 25%
    13:00 +35°C° 0 mm 3 mps 680 mmHg 25%
    14:00 +35°C° 0 mm 4 mps 680 mmHg 26%
    15:00 +34°C° 0.2 mm 4 mps 680 mmHg 28%
    16:00 +33°C° 0.2 mm 4 mps 680 mmHg 30%
    17:00 +33°C° 0.2 mm 4 mps 680 mmHg 32%
    18:00 +29°C° 0.5 mm 3 mps 680 mmHg 40%
    19:00 +27°C° 0.5 mm 3 mps 680 mmHg 49%
    20:00 +25°C° 0.5 mm 2 mps 680 mmHg 57%
    21:00 +25°C° 0 mm 2 mps 680 mmHg 61%
    22:00 +24°C° 0 mm 2 mps 680 mmHg 65%
    23:00 +23°C° 0 mm 1 mps 680 mmHg 69%

    Day after tomorrow, 17 October, Wednesday

    Time Temperature Precipitation Wind Pressure Humidity
    00:00 +23°C° 0 mm 1 mps 680 mmHg 72%
    01:00 +22°C° 0 mm 1 mps 679 mmHg 75%
    02:00 +22°C° 0 mm 1 mps 679 mmHg 77%
    03:00 +21°C° 0 mm 1 mps 678 mmHg 79%
    04:00 +21°C° 0 mm 1 mps 678 mmHg 80%
    05:00 +20°C° 0 mm 1 mps 678 mmHg 82%
    06:00 +23°C° 0 mm 1 mps 679 mmHg 71%
    07:00 +26°C° 0 mm 1 mps 680 mmHg 60%
    08:00 +28°C° 0 mm 1 mps 680 mmHg 48%
    09:00 +31°C° 0 mm 1 mps 681 mmHg 39%
    10:00 +34°C° 0 mm 1 mps 681 mmHg 30%
    11:00 +37°C° 0 mm 1 mps 681 mmHg 21%
    12:00 +38°C° 0 mm 2 mps 680 mmHg 19%
    13:00 +38°C° 0 mm 2 mps 679 mmHg 18%
    14:00 +38°C° 0 mm 2 mps 678 mmHg 17%
    15:00 +37°C° 0 mm 2 mps 678 mmHg 19%
    16:00 +36°C° 0 mm 3 mps 678 mmHg 21%
    17:00 +35°C° 0 mm 3 mps 677 mmHg 23%
    18:00 +33°C° 0 mm 3 mps 677 mmHg 29%
    19:00 +30°C° 0 mm 3 mps 678 mmHg 34%
    20:00 +28°C° 0 mm 3 mps 678 mmHg 40%
    21:00 +27°C° 0 mm 2 mps 678 mmHg 44%
    22:00 +27°C° 0 mm 2 mps 678 mmHg 47%
    23:00 +26°C° 0 mm 2 mps 678 mmHg 50%

    18 October, Thursday

    Time Temperature Precipitation Wind Pressure Humidity
    00:00 +25°C° 0 mm 2 mps 678 mmHg 53%
    01:00 +24°C° 0 mm 1 mps 677 mmHg 57%
    02:00 +24°C° 0 mm 1 mps 676 mmHg 60%
    03:00 +23°C° 0 mm 1 mps 676 mmHg 62%
    04:00 +23°C° 0 mm 1 mps 676 mmHg 64%
    05:00 +23°C° 0 mm 1 mps 677 mmHg 66%
    06:00 +25°C° 0 mm 1 mps 678 mmHg 56%
    07:00 +28°C° 0 mm 1 mps 679 mmHg 47%
    08:00 +31°C° 0 mm 1 mps 680 mmHg 38%
    09:00 +33°C° 0 mm 1 mps 680 mmHg 33%
    10:00 +35°C° 0 mm 1 mps 680 mmHg 28%
    11:00 +39°C° 0 mm 2 mps 680 mmHg 22%
    12:00 +37°C° 0 mm 2 mps 679 mmHg 25%
    13:00 +36°C° 0 mm 3 mps 679 mmHg 28%
    14:00 +34°C° 0 mm 3 mps 678 mmHg 31%
    15:00 +33°C° 0.1 mm 3 mps 678 mmHg 36%
    16:00 +31°C° 0.1 mm 3 mps 678 mmHg 40%
    17:00 +30°C° 0.1 mm 3 mps 678 mmHg 44%
    18:00 +29°C° 0.5 mm 3 mps 678 mmHg 53%
    19:00 +27°C° 0.5 mm 2 mps 679 mmHg 63%
    20:00 +25°C° 0.5 mm 2 mps 679 mmHg 72%
    21:00 +24°C° 0 mm 2 mps 679 mmHg 76%
    22:00 +24°C° 0 mm 2 mps 679 mmHg 80%
    23:00 +23°C° 0 mm 1 mps 679 mmHg 84%

    19 October, Friday

    Time Temperature Precipitation Wind Pressure Humidity
    00:00 +23°C° 0.1 mm 1 mps 679 mmHg 85%
    01:00 +23°C° 0.1 mm 1 mps 679 mmHg 86%
    02:00 +23°C° 0.1 mm 1 mps 678 mmHg 86%
    03:00 +22°C° 0.1 mm 1 mps 679 mmHg 87%
    04:00 +22°C° 0.1 mm 1 mps 679 mmHg 88%
    05:00 +22°C° 0.1 mm 1 mps 679 mmHg 90%
    06:00 +23°C° 0 mm 1 mps 680 mmHg 83%
    07:00 +24°C° 0 mm 2 mps 680 mmHg 76%
    08:00 +25°C° 0 mm 2 mps 681 mmHg 69%
    09:00 +27°C° 0 mm 2 mps 681 mmHg 60%
    10:00 +30°C° 0 mm 2 mps 681 mmHg 50%
    11:00 +32°C° 0 mm 2 mps 681 mmHg 41%
    12:00 +34°C° 0 mm 2 mps 681 mmHg 39%
    13:00 +34°C° 0 mm 2 mps 680 mmHg 36%
    14:00 +35°C° 0 mm 2 mps 679 mmHg 33%
    15:00 +34°C° 0.1 mm 3 mps 679 mmHg 36%
    16:00 +33°C° 0.1 mm 3 mps 679 mmHg 39%
    17:00 +32°C° 0.1 mm 4 mps 679 mmHg 43%
    18:00 +29°C° 0 mm 3 mps 679 mmHg 51%
    19:00 +27°C° 0 mm 3 mps 680 mmHg 59%
    20:00 +25°C° 0 mm 3 mps 680 mmHg 67%
    21:00 +24°C° 0 mm 2 mps 680 mmHg 71%
    22:00 +24°C° 0 mm 2 mps 679 mmHg 76%
    23:00 +23°C° 0 mm 1 mps 679 mmHg 80%

    20 October, Saturday

    Time Temperature Precipitation Wind Pressure Humidity
    00:00 +23°C° 0 mm 1 mps 679 mmHg 81%
    01:00 +22°C° 0 mm 1 mps 679 mmHg 83%
    02:00 +22°C° 0 mm 1 mps 679 mmHg 85%
    03:00 +22°C° 0 mm 1 mps 679 mmHg 86%
    04:00 +21°C° 0 mm 1 mps 679 mmHg 88%
    05:00 +21°C° 0 mm 1 mps 679 mmHg 90%
    06:00 +23°C° 0 mm 1 mps 680 mmHg 78%
    07:00 +25°C° 0 mm 1 mps 680 mmHg 67%
    08:00 +28°C° 0 mm 1 mps 681 mmHg 55%
    09:00 +30°C° 0 mm 1 mps 681 mmHg 44%
    10:00 +33°C° 0 mm 1 mps 681 mmHg 34%
    11:00 +37°C° 0 mm 2 mps 681 mmHg 23%
    12:00 +37°C° 0 mm 2 mps 681 mmHg 21%
    13:00 +38°C° 0 mm 2 mps 680 mmHg 19%
    14:00 +38°C° 0 mm 3 mps 679 mmHg 17%
    15:00 +37°C° 0 mm 3 mps 679 mmHg 19%
    16:00 +36°C° 0 mm 4 mps 679 mmHg 21%
    17:00 +35°C° 0 mm 4 mps 679 mmHg 24%
    18:00 +33°C° 0 mm 4 mps 679 mmHg 30%
    19:00 +30°C° 0 mm 4 mps 679 mmHg 36%
    20:00 +28°C° 0 mm 3 mps 680 mmHg 43%
    21:00 +27°C° 0 mm 3 mps 680 mmHg 50%
    22:00 +26°C° 0 mm 3 mps 680 mmHg 58%
    23:00 +24°C° 0 mm 2 mps 680 mmHg 65%
    Show more